This is the latest recevied weather packets stored in our database for station/object HP1MRA-15. If no packets are shown the sender has not sent any weather packets the latest 10 day(s).
| Time | Temp. | Humidity | Pressure | Rain* | Wind** | Luminosity | Snow |
|---|---|---|---|---|---|---|---|
| 1788453856 | 38.33° C | 64% | 1002.9 hPa | 0 mm | - | - | - |
| 1788453556 | 38.33° C | 62% | 1002.9 hPa | 0 mm | - | - | - |
| 1788453554 | 38.33° C | 62% | 1002.9 hPa | 0 mm | - | - | - |
| 1788453255 | 38.33° C | 64% | 1003 hPa | 0 mm | - | - | - |
| 1788452956 | 37.78° C | 65% | 1003.1 hPa | 0 mm | - | - | - |
| 1788452657 | 36.67° C | 62% | 1003.1 hPa | 0 mm | - | - | - |
| 1788452655 | 36.67° C | 63% | 1003.1 hPa | 0 mm | - | - | - |
| 1788452356 | 36.11° C | 64% | 1003.3 hPa | 0 mm | - | - | - |
| 1788452056 | 36.67° C | 63% | 1003.3 hPa | 0 mm | - | - | - |
| 1788451756 | 37.78° C | 62% | 1003.4 hPa | 0 mm | - | - | - |
| 1788451755 | 37.78° C | 63% | 1003.5 hPa | 0 mm | - | - | - |
| 1788451456 | 38.33° C | 67% | 1003.4 hPa | 0 mm | - | - | - |
| 1788451155 | 38.33° C | 65% | 1003.5 hPa | 0 mm | - | - | - |
| 1788450856 | 37.78° C | 68% | 1003.6 hPa | 0 mm | - | - | - |
| 1788450854 | 37.78° C | 68% | 1003.5 hPa | 0 mm | - | - | - |
| 1788450556 | 37.78° C | 69% | 1003.6 hPa | 0 mm | - | - | - |
| 1788450255 | 37.22° C | 69% | 1003.7 hPa | 0 mm | - | - | - |
| 1788449956 | 36.67° C | 69% | 1003.7 hPa | 0 mm | - | - | - |
| 1788449954 | 36.67° C | 69% | 1003.7 hPa | 0 mm | - | - | - |
| 1788449655 | 36.67° C | 69% | 1003.7 hPa | 0 mm | - | - | - |
| 1788449356 | 36.67° C | 69% | 1003.5 hPa | 0 mm | - | - | - |
| 1788449054 | 36.67° C | 68% | 1003.6 hPa | 0 mm | - | - | - |
| 1788448456 | 37.22° C | 71% | 1003.6 hPa | 0 mm | - | - | - |
| 1788448155 | 36.67° C | 72% | 1003.7 hPa | 0 mm | - | - | - |
| 1788447855 | 36.11° C | 72% | 1003.8 hPa | 0 mm | - | - | - |
* Rain latest hour (hover to see other rain measurements)
** Current wind speed in m/s (hover to see current wind gust speed)